Weather in Hadera

Israel     32°26′06″N   34°55′01″E
temp.,
°C
wind,
m/s
gust,
m/s
humid.,
%
clouds,
%
prec.,
mm/h
press.,
hPa
HPBL,
m
27 january, thu
thu2723:00+9w121567100 4.9 1013792
02:00+8w11157483 7.4 1014896
05:00+9wnw101562100 1.9 1014763
08:00+10wnw11156234 3.6 1016897
11:00+11wnw91259100 1.4 10191216
14:00+12w7105684 1.8 10191852
17:00+11w6106299 0.3 1019448
20:00+10w487233 1.1 1021328
28 january, fri
fri2823:00+9wsw467692 0.6 1021238
02:00+10w5973100 2.0 1021393
05:00+11w697273 1.4 1021387
08:00+12w7106853 2.6 1022511
11:00+13w576512 1.5 10221325
14:00+13w5666100 2.6 10211253
17:00+10sw3582100 3.0 1021225
20:00+10sw2281100 6.1 1022133
29 january, sat
sat2923:00+10ssw1286100 3.7 102277
02:00+9s238563 6.6 1022100
05:00+8sse22865 0.6 102143
08:00+9se237875 0.6 1023145
11:00+12ssw337031 0.6 1022808
14:00+13wsw44635 1.1 10211030
17:00+11wnw12720 0.1 1021110
20:00+10e11743 0.1 102341
30 january, sun
sun3023:00+9ene227733 0.0 102236
02:00+8ene338110 0.0 102146
05:00+8e338114 0.0 102052
08:00+9e34795 0.0 1021131
11:00+14e33560 0.0 1021804
14:00+15w22513 0.0 10191193
17:00+12nw33695 0.0 101980
20:00+10ne117116 0.0 102073
31 january, mon
mon3123:00+10ene127139 0.0 102038
02:00+9ene227099 0.0 102029
05:00+9ene3365100 0.0 101940
08:00+10ene3467100 0.0 102099
11:00+14ene224999 0.0 1020551
14:00+16nnw22475 0.0 10181113
17:00+12nnw34670 0.0 1018101
20:00+11n23660 0.0 1020126